Starlink 34299

operational
NORAD ID: 64383 Int'l Des: 2025-127 Owner: SPXS Country: US Constellation: starlink
LEOCIRCULAR

About Starlink 34299

Description loading...

Live Position

Loading 3D Globe...

Upcoming Passes

Altitude History

Altitude vs Time

uPlot chart will show altitude changes over time

Two-Line Element Set

1 64383U 25127P 26102.37022558 -.00005874 00000-0 -20415-3 0 9995
2 64383 43.0019 349.9615 0001223 279.0604 81.0109 15.27573662 47561
Epoch: Apr 12, 2026 • Age: 11 hours

Current Status

Altitude 493.0 km
Velocity 7.62 km/s
Sub-Earth Point -36.72°S, 159.65°E
Launch Date Jun 13, 2025
Age 0.8 years
Type internet

Technical Details

Classification Payload
Mass 575.00 kg
Dry Mass 530.00 kg
Total Mass 575.00 kg
Length 0.30 m
Diameter 4.10 m
Span 29.00 m
Shape Box + pan
Manufacturer SPXS
Bus Type Starlink V2MO
Phase Status In Orbit
Owner/State SPXS/US

Large Constellations

Loading constellations...